Showing default

CALSPHERE 1, 900

Orbit data source: Space-Track

CALSPHERE 1, 900 is a payload satellite owned by NRL (US) in LEO that was launched on Tue, 06 Oct 1964 UTC via a THOR ABLESTAR launch vehicle from the Air Force Western Test Range (AFWTR). Payload-class satellites include a variety of spacecraft equipped with specific instruments for various scientific and technological missions. These include communications satellites like Starlink; space stations such as the ISS; scientific satellites like the Hubble; Earth observation satellites from companies like Planet Labs, Umbra, and HawkEye 360; GPS; miniature CubeSats for education and research; and military/defense satellites.

Loading next visibility...
Identifier
900, 1964-063C
Orbit
LEO
Country
Flag of USUS
Related business
Manufacturer
NRL
Mission
Operational spacecraft
Bus & Motor
NRL 14", Unknown motor
Mass
1 kg wet, 1 kg dry
Launch date (UTC)
1964-10-06 (61 years ago)
Launch vehicle
THOR ABLESTAR
Launch site
Air Force Western Test Range (AFWTR)
Object type
Payload
Rocket body
Debris
Shape & HBR
Unknown
Radar Cross Section
Small (<0.1 m²)

Expand to show TLE details & history
Last TLE update: 7 hours ago

TLE from 7 hours ago
0 CALSPHERE 1
1 00900U 64063C   26037.55600398  .00000748  00000-0  75436-3 0  9999
2 00900  90.2161  68.7434 0024089 331.9075 158.4316 13.76456197 53457
Epoch: 2026-02-06T13:20Z
TLE epoch observation values (Epoch: 2026-02-06T13:20:38.743Z)
Latitude
49.65362°
Longitude
-87.85713°
Altitude
1,000.927 km
Speed
7.348 km/s
True Right ascension
16h 35m 59s
True Declination
49° 29' 22"
Sunlit
Object was in daylight at epoch
Visualization orbit readout
Latitude
Unknown
Longitude
Unknown
Altitude
Unknown
Speed
Unknown
Apparent Right ascension
Unknown
Apparent Declination
Unknown
Sunlit
N/A
Visualization observer readout
Local Sidereal Time
22:40:38
Azimuth
Unknown
Elevation
Unknown
Doppler factor
Unknown
Orbital elements
Apogee altitude
991.204 km
Perigee altitude
955.785 km
Semi-major axis
7,351.631 km
Eccentricity
0.00241
Inclination
90.2161°
RAAN
68.7434°
Arg. of periapsis
331.9075°
True anomaly
158.53279°
Mean anomaly
158.4316°
Eccentric anomaly
158.48222°
Mean motion
3.44324 °/min
Orbital period
104.55 mins
BSTAR
0.00075436
Loading maneuver chart data...
Computing Atmospheric mass density...
Loading historical data...
Loading historical data...
Loading historical data...
Loading historical data...
Loading historical data...
Loading historical data...
Loading historical data...

Documentation

Showing up to 5 results
|